Helicity
73 69 78 97 186 215 148 89 116 79 42 17 19 10 22 52 86 7 -50 35 17 9 12 60 63 75 55 39 42 11 -2 -4 7 26 15 10 3 19 22 50 56 69 88 97 94 119 115 165 143 163 151 113 123 88
86 86 92 103 189 209 147 92 93 97 43 14 40 33 37 65 93 142 92 49 -8 45 30 57 62 41 61 60 40 2 23 -10 -16 9 8 6 11 25 25 27 60 51 75 72 85 99 103 153 102 125 103 150 162 140
99 95 92 105 193 190 153 87 81 76 43 -2 51 43 53 79 75 111 27 118 150 43 -1 2 50 42 42 63 60 23 12 27 4 20 17 18 3 36 28 43 59 59 95 93 57 70 93 116 119 98 139 162 170 140
99 104 99 115 195 174 148 93 71 63 46 2 -4 61 59 85 75 67 54 89 95 74 20 25 67 53 62 73 52 45 37 44 52 31 27 34 27 43 59 72 81 96 130 90 71 51 73 85 118 135 152 141 126 139
108 114 111 128 190 147 120 95 67 51 43 5 7 -3 88 77 112 114 111 94 110 123 55 39 74 77 103 82 57 36 38 52 43 35 45 43 77 42 81 86 139 209 178 166 81 103 85 93 113 140 140 119 105 120
132 122 119 164 182 136 114 89 67 48 47 24 8 5 64 107 108 156 145 82 82 102 84 73 88 94 127 110 89 90 98 83 72 51 52 64 116 62 26 66 46 84 60 88 101 153 135 137 110 109 104 105 98 95
159 131 167 200 185 130 99 78 64 56 58 58 34 57 54 111 108 235 220 153 152 134 118 115 86 122 157 152 129 102 96 73 80 62 62 111 121 95 91 148 107 101 107 124 138 158 119 106 90 101 98 98 80 52
173 154 214 213 160 119 98 79 61 69 72 76 69 71 132 149 127 166 175 65 168 209 148 150 143 124 149 157 125 111 81 77 65 88 88 90 91 102 24 71 83 101 123 134 131 116 119 128 114 111 104 103 80 63
161 206 243 198 140 108 96 78 74 85 92 94 95 88 207 206 154 180 190 246 257 315 242 125 111 107 98 138 153 91 96 39 106 75 92 77 59 74 43 41 75 102 122 119 131 117 109 100 109 116 115 105 81 68
212 238 198 155 119 105 87 80 88 103 102 94 174 313 335 197 150 153 283 278 335 300 279 125 158 146 132 137 106 67 38 51 17 44 80 40 101 211 120 76 66 104 100 120 152 107 94 94 98 110 110 98 78 78
217 168 132 107 104 97 95 98 110 103 122 274 354 399 361 64 335 216 249 239 294 271 278 210 142 147 175 161 130 83 36 24 3 23 49 -11 89 118 64 168 131 130 116 103 89 81 85 90 96 120 114 89 88 79
164 131 107 99 102 100 103 102 103 178 391 443 423 354 408 346 307 324 369 372 299 250 220 264 350 314 245 215 157 78 50 43 10 59 35 9 57 93 51 119 154 148 149 134 100 99 109 97 94 114 111 97 90 85
125 97 97 88 79 89 106 97 86 109 310 444 346 397 383 303 393 589 680 659 489 287 406 407 463 460 373 227 162 91 37 27 76 -9 -5 -13 51 64 65 128 153 163 162 127 109 105 101 112 119 119 104 93 86 76
102 88 70 74 68 75 78 75 75 159 311 467 591 648 531 503 593 672 534 544 446 299 171 328 492 408 308 250 170 107 113 82 3 0 7 24 79 103 120 151 186 176 139 128 123 109 101 108 106 112 93 88 82 78
85 58 58 88 91 97 83 74 104 348 413 404 539 729 568 455 347 483 244 364 474 236 301 367 398 339 333 265 228 210 103 56 4 -1 106 103 114 168 158 171 178 187 154 127 113 101 103 92 99 97 92 98 92 83
59 78 114 85 95 76 66 89 204 378 330 296 435 555 444 357 333 221 346 214 384 272 330 436 310 259 274 252 154 165 147 54 28 44 70 82 86 110 159 151 174 168 145 134 121 103 97 91 98 95 102 100 97 92
107 212 126 106 74 50 84 298 515 470 298 364 436 367 130 335 225 169 179 231 260 421 468 416 263 202 217 213 251 277 253 188 167 94 69 74 116 134 159 174 172 148 139 143 124 106 98 107 120 104 98 98 102 100
226 126 109 124 229 563 603 514 437 346 337 378 353 369 187 135 133 95 198 217 372 324 441 513 357 294 247 165 219 143 205 310 226 106 97 121 146 176 178 193 183 156 146 138 122 114 119 117 96 85 114 109 96 93
101 79 97 266 327 335 282 342 282 232 217 282 393 304 89 80 72 53 229 188 340 456 451 338 225 126 141 140 122 133 186 241 176 168 134 150 173 213 218 214 201 168 144 132 118 100 85 73 81 101 101 111 108 117
67 120 351 314 207 182 175 210 354 304 192 197 219 107 85 36 64 89 97 179 356 393 315 163 187 145 147 220 185 133 126 193 217 243 245 235 212 239 199 177 171 151 137 121 111 95 81 77 81 83 90 102 116 121
47 130 301 346 290 181 125 108 224 178 75 68 80 36 105 91 148 189 178 294 351 199 148 59 67 103 74 121 146 151 116 138 130 155 210 241 204 200 181 159 161 143 130 117 113 88 72 76 98 102 103 109 118 129
274 271 272 290 120 168 150 227 229 200 40 82 209 198 89 158 168 183 257 200 174 97 47 -32 47 90 112 98 96 135 150 187 206 247 253 248 228 185 146 154 155 135 123 107 99 89 94 102 112 111 114 128 136 146
282 394 255 189 56 84 -31 95 156 95 34 116 191 107 175 155 136 234 211 175 174 102 59 55 91 135 129 120 131 162 179 181 203 215 202 208 224 178 162 144 126 125 114 90 96 108 113 113 114 131 140 147 155 162
340 279 260 70 143 67 33 72 72 132 78 78 134 147 143 94 154 96 53 71 125 200 247 234 198 214 210 193 172 168 166 184 214 225 186 199 185 158 149 139 131 130 120 132 120 119 118 119 135 142 151 156 172 183
136 154 180 202 52 43 120 125 83 73 25 9 48 57 86 112 104 15 59 73 128 177 219 229 227 198 220 262 262 212 211 157 153 174 185 172 208 206 193 171 153 129 109 111 109 115 125 131 142 156 164 184 195 182
82 147 118 162 173 52 -12 107 111 67 11 39 69 47 74 79 -5 -32 -25 40 125 194 241 244 259 275 255 226 193 172 144 162 182 188 143 126 125 132 136 136 120 92 69 77 105 122 135 143 156 168 185 183 174 154
71 137 101 174 261 218 113 118 133 158 84 41 29 29 54 26 -13 9 25 82 116 180 171 210 204 209 307 299 285 264 250 237 188 141 160 162 149 148 131 114 101 99 90 107 120 122 134 141 161 168 165 152 141 140
60 66 174 189 206 285 211 167 124 106 78 41 52 11 -29 1 26 49 65 82 114 133 195 231 271 294 348 327 288 298 286 205 204 212 232 246 222 199 173 167 159 151 135 123 126 140 153 157 150 149 140 131 127 113
60 90 161 215 217 178 169 153 123 94 106 76 69 57 44 68 70 72 92 86 102 125 217 264 275 341 411 357 320 250 191 154 195 176 167 153 142 141 136 139 136 129 119 120 149 149 142 136 134 121 121 116 101 91
106 121 145 157 142 123 157 184 147 155 196 170 86 55 76 103 98 86 86 108 142 164 188 216 250 278 281 264 233 209 177 127 135 134 119 93 85 107 99 110 110 100 101 111 123 131 151 126 112 105 109 98 90 85
135 139 128 133 166 175 189 180 183 185 191 159 143 70 93 119 133 144 137 154 167 196 203 191 205 188 192 181 197 193 136 108 126 135 142 171 150 128 108 100 92 92 105 122 121 116 111 103 106 101 100 105 95 93
170 121 114 121 188 212 238 225 187 133 114 93 93 85 94 108 120 137 141 140 132 128 126 154 183 180 150 154 151 150 118 123 123 124 141 155 141 119 107 101 100 108 118 121 118 111 107 108 95 90 98 100 83 67
154 126 144 128 140 116 157 128 75 72 114 115 114 131 138 141 126 118 102 114 96 59 71 99 128 148 155 159 149 163 178 160 137 132 131 123 108 99 104 100 102 108 116 114 108 98 97 97 92 94 91 72 58 45
Wind_Speed
28 25 22 20 12 6 8 8 12 5 29 44 46 48 47 50 55 56 49 37 33 43 39 38 39 40 39 37 35 28 27 32 31 33 32 33 34 35 28 26 25 24 27 26 28 28 33 32 34 31 33 27 24 23
29 26 23 20 12 7 6 4 9 5 13 52 51 51 49 45 37 28 21 22 20 42 39 38 39 39 41 39 36 34 35 32 32 33 35 36 40 38 38 26 22 22 23 23 23 24 27 26 24 26 23 22 24 24
32 29 25 23 15 12 7 6 3 4 11 23 54 48 47 43 42 35 18 11 6 43 47 47 45 38 42 42 40 40 39 36 35 34 37 38 42 36 34 20 23 16 17 18 19 22 15 16 17 16 20 21 24 22
34 34 29 25 20 16 11 11 5 2 1 14 10 46 46 40 35 32 23 17 20 37 49 45 38 40 41 42 41 42 40 34 34 36 38 39 43 36 37 32 17 25 21 16 11 10 15 13 15 18 20 21 20 21
37 38 35 29 24 20 18 16 11 8 4 9 17 4 42 43 39 43 36 35 40 44 44 47 42 40 37 36 40 40 37 36 38 39 39 41 41 41 38 37 7 9 8 13 18 23 22 27 22 23 20 19 20 25
42 42 37 32 28 25 24 20 14 13 11 7 8 16 22 43 40 35 49 49 38 32 42 49 44 43 38 31 32 36 37 40 41 42 43 40 40 39 38 27 15 10 11 13 17 22 25 26 24 23 21 24 25 26
49 45 39 34 30 29 29 27 20 18 15 12 10 9 12 29 44 49 45 40 31 27 45 52 51 44 42 39 40 41 41 43 43 45 45 43 38 34 38 16 32 11 9 12 16 20 21 20 22 23 23 26 27 26
49 47 41 36 34 31 30 30 29 24 20 20 20 14 28 31 39 58 53 34 36 41 46 57 51 45 42 46 45 42 46 46 45 47 44 41 38 35 36 1 23 15 10 11 13 15 24 25 24 24 24 27 28 29
51 46 41 38 36 33 32 32 29 24 21 22 24 18 28 39 32 45 43 44 43 52 59 59 58 55 36 42 41 40 44 52 47 51 46 37 35 23 9 13 6 7 8 9 12 14 18 20 22 22 24 26 27 29
47 45 41 39 36 34 33 31 27 23 20 22 19 22 28 30 18 22 45 58 63 65 67 69 47 56 41 41 39 37 42 48 51 45 36 40 43 23 12 9 11 4 8 10 10 11 13 16 18 20 22 24 25 27
45 45 43 40 40 38 37 32 28 24 22 24 28 30 26 13 32 45 55 64 71 80 77 72 62 54 46 48 45 45 43 42 50 43 43 43 51 34 20 10 2 7 9 9 10 18 14 17 18 20 22 23 25 26
48 45 43 44 44 44 39 35 33 33 27 26 21 19 18 36 41 53 70 68 79 100 73 74 65 51 45 43 44 45 51 46 54 33 46 47 37 26 21 5 8 14 13 10 12 18 18 20 21 22 21 22 24 25
48 46 46 48 47 44 40 39 38 33 21 20 29 28 28 37 52 69 86 88 94 79 77 67 59 50 47 50 48 47 52 59 42 54 54 43 34 26 14 6 10 13 12 9 11 15 18 20 23 25 23 22 23 24
47 49 48 49 49 44 43 44 44 42 28 35 35 48 48 50 61 62 75 83 74 80 69 62 59 53 49 54 50 58 55 49 59 58 55 47 21 13 3 5 11 14 10 8 10 13 17 19 21 23 23 24 23 25
41 47 49 49 42 41 42 45 51 47 32 37 42 57 58 53 49 59 55 60 75 72 72 59 55 51 53 55 57 54 56 62 60 54 52 38 20 8 5 11 12 12 10 9 10 12 15 19 22 23 24 24 26 27
41 41 40 41 39 38 42 46 51 44 40 36 44 47 43 51 55 56 72 67 71 76 65 61 60 60 66 64 65 74 67 64 50 44 34 19 9 1 9 11 13 10 10 10 12 13 16 18 21 23 25 26 28 29
25 36 32 27 24 28 47 34 31 35 41 43 43 40 33 60 79 64 72 86 75 80 88 72 74 67 50 74 78 69 74 61 50 39 31 20 7 4 10 10 8 8 8 10 13 15 17 21 24 26 28 29 29 32
28 24 11 13 26 26 15 21 22 26 34 35 38 40 50 63 80 79 68 76 86 88 78 80 62 75 78 77 73 68 61 53 44 37 30 15 8 5 8 8 4 6 9 11 14 17 20 22 24 27 30 31 33 35
15 13 30 39 29 13 4 17 17 25 25 29 43 48 63 66 75 80 65 73 75 63 62 73 72 82 80 68 64 58 50 45 42 34 22 12 9 7 3 1 4 7 10 13 15 19 21 22 27 31 32 33 34 35
19 30 40 38 25 5 5 9 15 15 28 60 59 50 60 75 73 71 79 69 71 74 72 77 78 59 61 58 52 50 40 33 26 24 21 16 12 6 2 2 4 7 11 16 18 21 24 27 30 31 31 32 34 36
27 36 33 18 7 3 2 6 22 36 53 68 68 50 63 66 74 74 79 68 71 80 84 69 61 52 43 43 43 39 31 29 29 27 19 16 11 7 2 3 5 8 13 16 19 22 25 29 33 32 32 32 35 37
15 30 21 13 7 7 13 32 39 47 59 55 46 59 64 73 74 74 65 75 79 85 67 63 57 48 42 36 32 31 30 27 21 15 12 11 10 7 4 3 6 10 17 20 21 25 28 30 31 31 32 35 37 40
22 17 22 22 11 20 29 49 55 55 57 63 59 55 62 66 64 64 72 77 74 65 66 57 51 42 37 31 20 19 24 23 20 16 12 11 7 7 6 8 11 15 20 24 25 27 30 31 31 33 35 38 41 45
23 23 21 28 32 34 57 62 51 50 41 43 52 53 61 65 64 69 77 73 72 63 62 54 41 38 34 30 25 25 26 24 17 13 12 8 8 11 13 14 16 21 25 26 25 27 30 33 34 37 39 43 47 52
21 25 34 40 57 36 45 59 57 46 45 45 45 53 55 52 67 76 76 67 65 66 60 50 44 40 35 29 27 29 29 23 17 13 17 13 9 11 16 20 21 23 23 23 24 28 32 34 37 41 44 49 53 57
24 37 37 45 63 62 50 50 56 48 45 50 52 53 52 57 65 69 67 68 65 63 53 42 37 31 26 25 24 26 27 27 16 14 16 14 14 13 14 16 18 21 21 25 26 30 33 36 40 44 48 52 55 58
32 39 50 49 61 55 44 42 41 44 53 58 57 60 57 67 68 59 50 48 51 48 44 44 33 30 27 27 26 25 23 22 20 16 11 14 17 19 15 14 15 19 21 26 30 31 35 39 43 47 50 52 53 55
37 43 60 53 46 49 54 48 43 49 53 48 51 64 65 69 62 48 45 43 42 39 29 28 30 22 25 27 21 15 13 9 6 7 10 16 19 18 18 19 19 20 24 29 32 35 38 41 44 47 49 51 52 52
37 31 42 50 44 44 47 51 52 45 41 45 55 61 64 52 43 43 44 43 40 32 24 18 17 15 17 20 20 17 9 7 6 7 7 8 9 13 16 18 21 25 27 30 34 36 39 41 43 44 47 49 50 50
42 35 41 49 52 47 45 39 38 39 41 42 43 44 49 48 44 41 40 37 32 28 25 15 14 17 19 19 18 17 15 15 14 8 3 3 8 7 12 17 21 24 27 30 34 36 38 40 42 45 48 49 51 51
33 38 40 42 46 40 32 26 26 33 41 45 42 41 44 45 41 39 38 33 26 20 15 12 12 15 17 16 15 13 10 11 9 10 10 8 9 10 13 17 21 24 28 30 32 34 36 39 42 45 47 49 49 49
45 54 52 47 45 37 36 45 48 49 50 50 49 46 43 40 41 37 33 27 21 17 15 11 12 13 12 11 7 5 2 5 3 5 7 9 10 13 15 19 22 25 27 29 32 33 35 38 40 42 44 45 46 47
35 35 36 38 40 50 49 47 50 49 47 49 47 45 44 41 41 34 27 24 20 16 12 8 7 8 8 8 5 5 6 5 6 8 10 11 13 15 18 20 23 25 26 29 31 32 34 36 39 40 41 42 43 44
Wind_Direction
297 302 307 318 321 330 350 14 34 176 230 240 240 239 247 252 246 196 186 160 173 241 254 252 248 247 247 251 253 277 285 278 288 282 285 303 296 324 38 61 80 90 82 88 87 78 68 90 80 74 68 68 67 64
288 293 294 303 295 299 318 342 19 155 199 255 262 259 257 265 271 271 280 137 138 258 263 264 260 259 254 255 264 268 276 288 287 290 291 304 299 313 340 50 89 84 96 91 103 88 76 98 78 71 68 64 60 53
279 284 285 293 282 288 288 303 353 33 184 198 273 278 272 270 268 279 280 145 274 265 263 258 258 266 258 259 265 266 273 286 294 298 302 304 295 327 353 56 44 83 99 94 90 92 120 107 88 73 65 58 53 49
272 280 279 279 275 277 283 300 283 289 154 179 197 282 277 276 274 275 268 238 269 276 261 264 271 266 267 266 266 268 279 295 302 301 306 311 304 325 336 352 33 17 61 83 135 153 87 103 92 73 63 57 49 40
263 274 276 273 271 270 290 296 285 280 236 189 176 233 278 276 272 266 266 257 264 262 268 264 267 270 274 273 268 274 284 290 295 296 305 311 311 320 332 336 157 75 94 60 53 62 69 58 74 65 58 48 45 39
261 270 271 264 266 271 285 285 269 284 287 241 195 179 290 272 273 264 258 258 255 275 274 264 270 265 268 275 276 276 283 286 291 294 299 308 313 320 327 352 24 84 107 126 40 54 50 56 60 53 51 51 49 43
262 264 261 258 258 271 283 283 280 284 285 276 268 224 271 275 266 253 261 269 233 261 268 266 264 265 262 266 271 276 282 285 289 292 296 306 317 320 320 332 340 31 74 67 64 54 45 53 48 54 53 49 45 43
253 258 254 253 258 265 272 276 282 282 280 284 283 265 275 277 275 258 261 266 239 252 266 261 263 265 258 262 267 276 277 282 285 286 299 306 313 313 317 313 340 3 56 73 80 56 31 46 48 50 53 46 43 44
250 248 248 252 255 261 265 270 273 272 273 275 278 271 280 271 269 265 259 252 255 252 254 256 255 258 261 263 267 276 278 278 284 282 293 306 305 306 335 351 24 58 82 74 81 57 41 41 43 50 49 44 41 38
243 244 248 250 252 255 257 262 258 256 256 263 265 276 273 271 252 259 261 249 250 252 251 252 260 253 258 257 263 273 277 277 276 285 301 298 298 224 252 295 335 94 102 79 72 57 49 45 43 46 46 43 39 35
244 250 253 254 255 256 257 253 246 240 240 243 263 273 287 206 260 260 254 246 243 245 245 244 247 251 256 255 259 264 273 279 276 285 288 297 294 318 321 201 293 131 117 99 50 19 50 44 42 44 40 37 33 30
249 250 251 257 258 257 252 244 234 220 261 238 262 280 260 268 263 255 247 248 244 239 240 235 238 247 253 257 260 263 265 272 266 290 281 285 303 329 329 109 135 136 123 99 22 18 34 34 36 38 36 32 30 27
252 253 256 260 258 252 243 234 219 216 198 231 249 262 262 261 253 252 243 242 237 237 232 229 231 238 248 252 257 260 261 260 277 272 276 286 304 317 335 85 120 125 116 80 40 23 23 26 28 29 29 29 26 21
257 261 261 262 260 250 236 223 209 201 229 242 245 251 253 261 254 255 252 242 241 233 226 221 228 239 247 244 253 252 258 265 265 269 274 286 300 305 2 114 132 136 119 74 42 27 21 19 22 24 24 24 23 18
259 264 265 263 253 241 228 215 200 201 239 249 246 257 258 259 266 253 259 243 234 223 217 218 230 239 238 245 247 250 253 256 259 270 279 292 297 284 170 142 136 128 108 78 49 34 22 17 17 18 18 19 16 13
266 271 263 264 255 233 216 202 197 212 243 255 249 259 260 252 253 253 241 237 223 213 213 222 231 237 239 241 242 241 247 252 267 275 289 301 308 185 145 137 129 107 92 66 42 30 23 17 15 13 12 11 9 8
248 276 275 260 241 222 191 195 217 231 236 253 252 239 258 259 243 245 234 225 217 211 217 224 227 234 241 241 242 245 248 259 267 276 283 287 277 182 145 137 117 92 66 48 40 32 21 13 11 6 3 3 3 1
269 272 225 187 151 135 183 214 225 239 251 246 231 235 246 254 235 229 232 221 215 217 220 224 231 235 239 241 244 252 259 260 264 271 275 272 249 184 151 140 96 51 43 34 30 21 12 7 2 359 360 359 357 357
246 186 156 146 151 157 217 211 240 246 250 234 240 248 242 243 231 228 231 219 219 223 226 227 235 238 241 250 256 258 260 256 253 257 265 254 226 190 178 107 42 21 26 19 18 11 7 4 359 356 357 358 358 359
158 145 144 150 155 193 258 265 241 251 240 230 233 238 239 232 227 226 216 217 218 220 227 229 233 247 251 258 262 262 258 250 237 238 242 237 233 213 210 120 10 19 13 7 7 6 0 356 354 354 356 357 357 356
147 152 152 155 178 10 295 240 228 252 233 224 223 237 242 225 219 218 215 220 221 223 225 233 240 249 263 268 264 258 250 241 241 244 212 201 213 215 227 340 0 358 350 352 354 353 351 350 353 356 356 355 355 355
150 152 168 192 224 276 278 255 238 232 220 226 231 235 226 217 216 217 220 221 226 224 230 236 242 250 258 271 267 252 241 240 242 232 219 184 205 220 246 319 343 338 338 342 347 347 348 350 354 355 354 353 353 352
150 178 195 227 236 241 233 208 207 211 225 224 221 228 226 218 219 215 221 225 229 233 234 242 244 253 256 262 268 246 236 233 234 228 223 240 255 282 300 318 329 331 332 337 344 346 348 353 354 353 353 351 350 348
198 210 213 227 230 224 211 211 216 221 227 228 232 233 223 219 221 225 225 231 233 237 238 240 243 245 252 251 248 240 239 240 235 238 247 244 269 299 313 320 327 332 334 340 344 348 350 351 353 352 351 348 347 345
195 217 231 231 217 221 215 210 219 232 233 234 233 226 221 225 224 226 230 234 234 238 239 237 240 244 245 244 237 239 241 237 230 236 271 280 294 319 323 326 332 336 342 346 347 348 349 351 352 351 349 348 346 345
215 236 235 227 216 224 230 230 233 238 242 236 235 226 227 229 227 229 233 236 237 236 233 227 225 233 238 235 213 220 229 247 250 262 279 290 302 313 321 326 334 339 347 346 349 348 350 352 351 349 348 349 348 348
239 234 228 228 219 218 231 240 242 246 238 233 230 225 228 223 225 231 239 242 240 240 236 233 228 226 215 221 231 237 243 257 271 284 301 312 321 329 336 344 351 353 0 353 352 353 352 351 351 350 350 352 353 354
240 237 221 220 222 230 232 238 242 238 238 242 233 229 224 223 228 240 245 244 240 237 238 237 237 224 220 226 224 219 246 266 301 331 342 338 340 347 359 6 13 12 3 357 357 357 357 355 354 354 355 355 357 0
238 234 218 216 224 234 239 242 243 250 252 242 238 234 231 240 252 254 249 245 243 243 235 225 231 208 205 225 236 244 222 226 224 253 282 307 330 346 360 6 2 358 358 360 2 2 1 1 1 2 2 3 4 5
227 229 224 224 228 239 246 255 253 251 251 251 251 246 243 249 258 258 252 250 250 247 242 224 188 191 187 197 219 241 265 277 285 286 266 302 341 22 8 1 359 359 1 2 2 4 7 6 6 7 7 8 8 9
229 233 235 239 240 252 257 264 257 245 244 244 247 246 244 246 253 255 253 255 253 245 227 203 198 205 200 201 202 201 225 271 295 318 341 19 31 25 10 4 4 5 5 5 7 7 7 8 9 10 10 12 13 15
232 226 227 236 236 242 242 235 235 238 240 242 244 245 246 249 247 252 254 254 248 240 235 214 176 188 215 222 221 257 186 127 66 32 41 37 28 19 15 12 10 10 10 11 11 12 13 13 14 14 16 17 18 18
238 237 240 240 238 230 234 238 239 242 244 240 242 243 247 250 250 257 261 261 256 241 219 200 180 169 164 162 159 123 116 91 67 53 40 36 34 27 19 15 14 15 16 16 17 18 18 19 19 20 21 22 21 20